Regional Weather Roundup
Issued by NWS Midland/Odessa, TX

Skip options and go directly to product.
Home | Oldest Version | Previous Version | Current Version | All | Text Only | Save Text | Print | Product List | Glossary On

Skip product version selection by date and time.   
626
ASUS44 KMAF 020610
RWRMAF
MIDLAND AREA WEATHER ROUNDUP
NATIONAL WEATHER SERVICE MIDLAND TX
100 AM CDT WED SEP 02 2015

...IN SOUTHWEST TEXAS AND SOUTHEAST NEW MEXICO...

CITY           SKY/WX    TMP DP  RH WIND       PRES   REMARKS
ALPINE         FAIR      71  52  52 W5        30.22R
ANDREWS        FAIR      70  54  56 S6        30.09S
ARTESIA        PTCLDY    77  50  38 S12       30.09S
BIG SPRING     FAIR      78  52  40 SE13      30.08F
CARLSBAD       PTCLDY    77  50  38 S8        30.07R
DRYDEN           N/A     77  56  48 NW5       30.03S
FORT STOCKTON  FAIR      76  52  43 S10       30.07S
GUAD PASS      LGT RAIN  73  49  42 NE30      30.20S
HOBBS            N/A     68  50  52 CALM      30.12S
MARFA          FAIR      64  48  55 E3        30.20S
MIDLAND AIRPK  FAIR      79  52  39 SE7       30.07F
MIDLAND INTL   FAIR      76  52  43 SE7       30.06S
ODESSA         FAIR      79  50  36 S9        30.08
PECOS          FAIR      78  49  36 SE9       30.04S
PRESIDIO       NOT AVBL
SEMINOLE       FAIR      69  51  52 S5        30.10F
SNYDER         FAIR      76  55  49 SE7       30.06F
WINK           FAIR      74  53  48 SE6       30.05R
$$
...OTHER STATIONS IN TEXAS...

CITY           SKY/WX    TMP DP  RH WIND       PRES   REMARKS
ABILENE        FAIR      77  63  61 SE10      30.05S
AMARILLO       MOCLDY    75  54  47 S13       30.11R
AUSTIN         FAIR      69  66  90 S3        30.06R
BROWNSVILLE    FAIR      78  75  90 SE7       29.99S
CORPUS CHRISTI FAIR      76  73  91 CALM      30.01R
DALLAS FTW     FAIR      80  67  64 S10       30.03S
DEL RIO        FAIR      81  67  62 E10G21    30.00R
EL PASO        MOCLDY    88  42  20 CALM      30.05S
HOUSTON INT    MOCLDY    74  72  93 E5        30.05R
LUBBOCK        FAIR      73  54  51 SE10      30.09S
SAN ANGELO     FAIR      76  58  53 S6        30.03S
SAN ANTONIO    FAIR      76  68  76 SE8       30.07R
WACO           FAIR      77  68  73 S14       30.05S
WICHITA FALLS  NOT AVBL
$$
...OTHER LOCATIONS IN NEW MEXICO...

CITY           SKY/WX    TMP DP  RH WIND       PRES   REMARKS
ALAMAGORDO     MOCLDY    72  41  33 SE6       30.09R
ALBUQUERQUE    MOCLDY    72  42  34 SE5       30.18S
CANNON AFB     PTCLDY    74  51  44 S5        30.16R
CLOVIS         PTCLDY    70  52  52 SW7       30.17R
HOLLOMAN AFB   MOCLDY    73  46  38 NE3       30.06S
ROSWELL        PTCLDY    78  50  37 S8        30.09R
RUIDOSO        PTCLDY    64  45  48 MISG      30.34S
SANTA FE       PTCLDY    68  42  38 CALM      30.24F
TRUTH OR CONSE PTCLDY    73  47  39 W8        30.15R
TUCUMCARI      CLOUDY    77  52  41 S5        30.08S
$$

USA.gov is the U.S. government's official web portal to all federal, state and local government web resources and services.